Regional Weather Roundup
Issued by NWS

Home | Current Version | Previous Version | Text Only | Print | Product List | Glossary Off
Versions: 1 2 3 4 5 6 7 8 9 10 11 12 13 14 15 16 17 18 19 20 21 22 23 24 25 26 27 28 29 30 31 32 33 34 35 36 37 38 39 40 41 42 43 44 45 46 47 48 49 50

000
ASUS43 KFSD 191810
RWRSD

WEATHER ROUNDUP FOR SOUTH DAKOTA
NATIONAL WEATHER SERVICE SIOUX FALLS SD
100 PM CDT TUE SEP 19 2017

NOTE: "FAIR" INDICATES FEW OR NO CLOUDS BELOW 12,000 FEET WITH NO
SIGNIFICANT WEATHER AND/OR OBSTRUCTIONS TO VISIBILITY.


SDZ001>005-009-010-012>017-191900-
NORTHWEST AND NORTH CENTRAL SOUTH DAKOTA

CITY           SKY/WX    TMP DP  RH WIND       PRES   REMARKS
BUFFALO          N/A     64  49  57 NW15      29.49R
FAITH            N/A     69  45  41 NW12      29.51
MOBRIDGE       CLOUDY    73  65  75 S17G24    29.47S
$$

SDZ012>016-024>037-041>051-057-063-072>074-191900-
SOUTHWEST AND SOUTH CENTRAL SOUTH DAKOTA

CITY           SKY/WX    TMP DP  RH WIND       PRES   REMARKS
RAPID CTY ARPT SUNNY     70  45  40 N16       29.52F
PIERRE         CLOUDY    73  63  70 SE20      29.47F
CUSTER         CLOUDY    69  37  30 SW10G22   29.65F
ELLSWORTH AFB  CLOUDY    69  43  39 N10       29.52F
PHILIP         CLOUDY    72  53  51 NW10      29.49F
PINE RIDGE     CLOUDY    73  53  49 S8        29.56F
SPEARFISH      FAIR      66  45  45 VRB6      29.56F
WINNER         FAIR      77  67  71 S23G31    29.51F
$$

SDZ004>011-016>023-039-040-191900-
NORTHEAST SOUTH DAKOTA

CITY           SKY/WX    TMP DP  RH WIND       PRES   REMARKS
ABERDEEN       CLOUDY    75  65  70 SE24G37   29.54F
WATERTOWN      CLOUDY    68  65  90 SE22G35   29.66F
BROOKINGS      CLOUDY    69  65  86 SE20G29   29.69F
SISSETON         N/A     72  65  78 SE23G36   29.64F
$$

SDZ017-020-022-023-036>040-048>070-191900-
SOUTHEAST SOUTH DAKOTA

CITY           SKY/WX    TMP DP  RH WIND       PRES   REMARKS
SIOUX FALLS    CLOUDY    72  69  90 SE18G28   29.69F
HURON          CLOUDY    73  66  78 SE25G36   29.56F
CHAMBERLAIN    CLOUDY    78  69  75 SE16G29   29.52F
MITCHELL       MOSUNNY   77  67  71 SE21G33   29.59F
YANKTON        MOSUNNY   76  69  79 SE17G25   29.63F
$$

ABBREVIATIONS USED IN REMARKS
   TC - TEMPERATURE IN CELSIUS
  WCI - WIND CHILL INDEX
   HX - HEAT INDEX
  VSB - VISIBILITY





USA.gov is the U.S. government's official web portal to all federal, state and local government web resources and services.